Time,TemperatureF,DewpointF,PressureIn,WindDirection,WindDirectionDegrees,WindSpeedMPH,WindSpeedGustMPH,Humidity,HourlyPrecipIn,Conditions,Clouds,dailyrainin,SoftwareType,DateUTC
2013-02-18 00:03:00,48.2,46.2,30.01,WSW,237,2.0,8.0,93,0.00,,,0.00,meteohub,2013-02-18 08:03:00,
2013-02-18 00:08:00,48.2,46.2,30.01,WSW,241,2.0,7.0,93,0.00,,,0.00,meteohub,2013-02-18 08:08:00,
2013-02-18 00:13:00,48.0,46.0,30.01,WSW,239,1.0,9.0,93,0.00,,,0.00,meteohub,2013-02-18 08:13:00,
2013-02-18 00:18:00,48.0,46.0,30.01,WSW,245,7.0,10.0,93,0.00,,,0.00,meteohub,2013-02-18 08:18:00,
2013-02-18 00:23:00,48.0,46.0,30.01,WSW,237,2.0,10.0,93,0.00,,,0.00,meteohub,2013-02-18 08:23:00,
2013-02-18 00:28:00,48.0,46.0,30.01,WSW,245,3.0,10.0,93,0.00,,,0.00,meteohub,2013-02-18 08:28:00,
2013-02-18 00:33:00,48.0,46.0,30.01,WSW,254,3.0,10.0,93,0.00,,,0.00,meteohub,2013-02-18 08:33:00,
2013-02-18 00:38:00,48.0,46.0,30.01,SW,233,9.0,13.0,93,0.00,,,0.00,meteohub,2013-02-18 08:38:00,
2013-02-18 00:43:00,48.4,46.8,30.01,WSW,242,9.0,13.0,94,0.00,,,0.00,meteohub,2013-02-18 08:43:00,
2013-02-18 00:48:00,48.4,46.4,30.02,WSW,245,7.0,13.0,93,0.00,,,0.00,meteohub,2013-02-18 08:48:00,
2013-02-18 00:53:00,48.4,46.4,30.02,SW,231,8.0,14.0,93,0.00,,,0.00,meteohub,2013-02-18 08:53:00,
2013-02-18 00:58:00,48.4,46.4,30.02,WNW,287,3.0,14.0,93,0.00,,,0.00,meteohub,2013-02-18 08:58:00,
2013-02-18 01:03:00,48.4,46.4,30.02,WSW,258,2.0,14.0,93,0.00,,,0.00,meteohub,2013-02-18 09:03:00,
2013-02-18 01:08:00,48.4,46.4,30.02,WSW,256,10.0,11.0,93,0.00,,,0.00,meteohub,2013-02-18 09:08:00,
2013-02-18 01:13:00,48.4,46.4,30.02,West,280,5.0,12.0,93,0.00,,,0.00,meteohub,2013-02-18 09:13:00,
2013-02-18 01:18:00,48.4,46.2,30.01,SW,227,9.0,13.0,92,0.00,,,0.00,meteohub,2013-02-18 09:18:00,
2013-02-18 01:24:00,48.4,46.2,30.02,SW,234,7.0,13.0,92,0.00,,,0.00,meteohub,2013-02-18 09:24:00,
2013-02-18 01:29:00,48.4,46.2,30.02,SW,226,5.0,13.0,92,0.00,,,0.00,meteohub,2013-02-18 09:29:00,
2013-02-18 01:34:00,48.4,46.2,30.02,WSW,238,8.0,12.0,92,0.00,,,0.00,meteohub,2013-02-18 09:34:00,
2013-02-18 01:39:00,48.4,46.2,30.02,WSW,243,3.0,11.0,92,0.00,,,0.00,meteohub,2013-02-18 09:39:00,
2013-02-18 01:44:00,48.4,46.2,30.02,WSW,240,5.0,13.0,92,0.00,,,0.00,meteohub,2013-02-18 09:44:00,
2013-02-18 01:49:00,48.4,46.2,30.02,SW,233,5.0,13.0,92,0.00,,,0.00,meteohub,2013-02-18 09:49:00,
2013-02-18 01:54:00,48.4,46.2,30.02,SW,233,3.0,13.0,92,0.00,,,0.00,meteohub,2013-02-18 09:54:00,
2013-02-18 01:59:00,48.4,46.2,30.01,SW,233,7.0,11.0,92,0.00,,,0.00,meteohub,2013-02-18 09:59:00,
2013-02-18 02:04:00,48.4,46.2,30.01,WSW,249,8.0,11.0,92,0.00,,,0.00,meteohub,2013-02-18 10:04:00,
2013-02-18 02:09:00,48.4,46.2,30.01,WSW,252,5.0,11.0,92,0.00,,,0.00,meteohub,2013-02-18 10:09:00,
2013-02-18 02:14:00,48.4,46.2,30.01,SW,233,3.0,11.0,92,0.00,,,0.00,meteohub,2013-02-18 10:14:00,
2013-02-18 02:19:00,48.6,46.0,30.01,WSW,244,9.0,12.0,91,0.00,,,0.00,meteohub,2013-02-18 10:19:00,
2013-02-18 02:24:00,48.4,45.9,30.01,West,262,3.0,12.0,91,0.00,,,0.00,meteohub,2013-02-18 10:24:00,
2013-02-18 02:29:00,48.4,45.9,30.01,WSW,243,9.0,13.0,91,0.00,,,0.00,meteohub,2013-02-18 10:29:00,
2013-02-18 02:34:00,48.4,45.9,30.01,SW,233,10.0,13.0,91,0.00,,,0.00,meteohub,2013-02-18 10:34:00,
2013-02-18 02:40:00,48.4,45.9,30.01,West,268,6.0,13.0,91,0.00,,,0.00,meteohub,2013-02-18 10:40:00,
2013-02-18 02:45:00,48.4,45.9,30.01,SW,225,4.0,13.0,91,0.00,,,0.00,meteohub,2013-02-18 10:45:00,
2013-02-18 02:50:00,48.2,45.7,30.00,SW,230,4.0,13.0,91,0.00,,,0.00,meteohub,2013-02-18 10:50:00,
2013-02-18 02:55:00,48.2,45.7,30.00,WSW,237,8.0,13.0,91,0.00,,,0.00,meteohub,2013-02-18 10:55:00,
2013-02-18 03:01:00,48.2,45.3,30.00,WSW,243,3.0,10.0,90,0.00,,,0.00,meteohub,2013-02-18 11:01:00,
2013-02-18 03:06:00,48.2,45.3,29.99,WSW,246,5.0,9.0,90,0.00,,,0.00,meteohub,2013-02-18 11:06:00,
2013-02-18 03:11:00,48.2,45.3,29.99,West,270,6.0,9.0,90,0.00,,,0.00,meteohub,2013-02-18 11:11:00,
2013-02-18 03:16:00,48.2,45.3,29.99,SW,225,3.0,10.0,90,0.00,,,0.00,meteohub,2013-02-18 11:16:00,
2013-02-18 03:21:00,48.2,45.3,29.99,SW,233,5.0,10.0,90,0.00,,,0.00,meteohub,2013-02-18 11:21:00,
2013-02-18 03:26:00,48.0,45.1,29.99,WSW,239,4.0,12.0,90,0.00,,,0.00,meteohub,2013-02-18 11:26:00,
2013-02-18 03:31:00,48.0,45.1,29.99,West,266,8.0,12.0,90,0.00,,,0.00,meteohub,2013-02-18 11:31:00,
2013-02-18 03:36:00,48.0,45.1,29.99,WSW,239,0.0,12.0,90,0.00,,,0.00,meteohub,2013-02-18 11:36:00,
2013-02-18 03:42:00,48.0,45.1,29.99,WNW,285,7.0,11.0,90,0.00,,,0.00,meteohub,2013-02-18 11:42:00,
2013-02-18 03:47:00,48.0,45.1,29.99,SW,236,4.0,11.0,90,0.00,,,0.00,meteohub,2013-02-18 11:47:00,
2013-02-18 03:52:00,48.0,45.0,29.99,West,266,3.0,10.0,89,0.00,,,0.00,meteohub,2013-02-18 11:52:00,
2013-02-18 03:57:00,48.0,45.0,29.99,WSW,256,6.0,11.0,89,0.00,,,0.00,meteohub,2013-02-18 11:57:00,
2013-02-18 04:02:00,48.0,45.0,30.00,SW,233,9.0,11.0,89,0.00,,,0.00,meteohub,2013-02-18 12:02:00,
2013-02-18 04:07:00,48.0,45.0,30.00,West,268,9.0,14.0,89,0.00,,,0.00,meteohub,2013-02-18 12:07:00,
2013-02-18 04:12:00,48.0,44.6,30.00,WSW,242,4.0,14.0,88,0.00,,,0.00,meteohub,2013-02-18 12:12:00,
2013-02-18 04:17:00,48.0,44.6,30.00,West,268,7.0,14.0,88,0.00,,,0.00,meteohub,2013-02-18 12:17:00,
2013-02-18 04:22:00,48.0,44.6,30.00,West,273,2.0,14.0,88,0.00,,,0.00,meteohub,2013-02-18 12:22:00,
2013-02-18 04:27:00,48.0,44.6,30.00,West,263,5.0,14.0,88,0.00,,,0.00,meteohub,2013-02-18 12:27:00,
2013-02-18 04:32:00,48.0,44.6,30.00,West,264,7.0,13.0,88,0.00,,,0.00,meteohub,2013-02-18 12:32:00,
2013-02-18 04:37:00,48.2,44.8,30.00,West,276,6.0,11.0,88,0.00,,,0.00,meteohub,2013-02-18 12:37:00,
2013-02-18 04:42:00,48.2,44.8,30.00,WSW,254,3.0,11.0,88,0.00,,,0.00,meteohub,2013-02-18 12:42:00,
2013-02-18 04:47:00,48.2,44.6,30.00,West,264,6.0,11.0,87,0.00,,,0.00,meteohub,2013-02-18 12:47:00,
2013-02-18 04:52:00,48.2,44.6,30.00,West,270,8.0,14.0,87,0.00,,,0.00,meteohub,2013-02-18 12:52:00,
2013-02-18 04:57:00,48.4,44.8,30.00,WSW,243,4.0,14.0,87,0.00,,,0.00,meteohub,2013-02-18 12:57:00,
2013-02-18 05:02:00,48.4,44.8,30.00,West,268,7.0,14.0,87,0.00,,,0.00,meteohub,2013-02-18 13:02:00,
2013-02-18 05:07:00,48.4,44.8,30.00,West,264,7.0,13.0,87,0.00,,,0.00,meteohub,2013-02-18 13:07:00,
2013-02-18 05:12:00,48.4,44.8,30.00,West,260,8.0,13.0,87,0.00,,,0.00,meteohub,2013-02-18 13:12:00,
2013-02-18 05:17:00,48.4,44.8,30.00,WSW,243,5.0,13.0,87,0.00,,,0.00,meteohub,2013-02-18 13:17:00,
2013-02-18 05:22:00,48.2,44.2,30.01,WSW,251,7.0,15.0,86,0.00,,,0.00,meteohub,2013-02-18 13:22:00,
2013-02-18 05:27:00,48.2,44.2,30.01,West,274,6.0,15.0,86,0.00,,,0.00,meteohub,2013-02-18 13:27:00,
2013-02-18 05:32:00,48.2,44.2,30.01,WSW,255,3.0,15.0,86,0.00,,,0.00,meteohub,2013-02-18 13:32:00,
2013-02-18 05:37:00,48.2,44.2,30.01,West,268,6.0,15.0,86,0.00,,,0.00,meteohub,2013-02-18 13:37:00,
2013-02-18 05:42:00,48.4,44.4,30.00,WSW,253,4.0,14.0,86,0.00,,,0.00,meteohub,2013-02-18 13:42:00,
2013-02-18 05:47:00,48.2,43.9,30.01,WSW,248,7.0,15.0,85,0.00,,,0.00,meteohub,2013-02-18 13:47:00,
2013-02-18 05:52:00,48.2,43.9,30.00,West,262,2.0,15.0,85,0.00,,,0.00,meteohub,2013-02-18 13:52:00,
2013-02-18 05:57:00,48.2,43.9,30.01,West,259,10.0,15.0,85,0.00,,,0.00,meteohub,2013-02-18 13:57:00,
2013-02-18 06:02:00,48.0,43.7,30.00,SSW,204,4.0,14.0,85,0.00,,,0.00,meteohub,2013-02-18 14:02:00,
2013-02-18 06:07:00,48.2,43.9,30.00,West,274,5.0,14.0,85,0.00,,,0.00,meteohub,2013-02-18 14:07:00,
2013-02-18 06:12:00,48.0,43.7,30.00,WSW,252,3.0,14.0,85,0.00,,,0.00,meteohub,2013-02-18 14:12:00,
2013-02-18 06:17:00,48.0,43.7,30.00,WSW,247,1.0,15.0,85,0.00,,,0.00,meteohub,2013-02-18 14:17:00,
2013-02-18 06:22:00,48.0,43.7,30.00,WSW,237,0.0,15.0,85,0.00,,,0.00,meteohub,2013-02-18 14:22:00,
2013-02-18 06:28:00,48.0,43.3,30.00,West,281,7.0,15.0,84,0.00,,,0.00,meteohub,2013-02-18 14:28:00,
2013-02-18 06:33:00,48.0,43.7,30.00,WSW,248,5.0,13.0,85,0.00,,,0.00,meteohub,2013-02-18 14:33:00,
2013-02-18 06:38:00,47.8,43.2,30.01,WSW,257,3.0,13.0,84,0.00,,,0.00,meteohub,2013-02-18 14:38:00,
2013-02-18 06:43:00,47.8,43.2,30.01,WSW,247,5.0,12.0,84,0.00,,,0.00,meteohub,2013-02-18 14:43:00,
2013-02-18 06:48:00,47.8,43.2,30.01,WSW,255,2.0,14.0,84,0.00,,,0.00,meteohub,2013-02-18 14:48:00,
2013-02-18 06:53:00,47.8,43.2,30.01,WSW,246,4.0,14.0,84,0.00,,,0.00,meteohub,2013-02-18 14:53:00,
2013-02-18 06:58:00,47.8,43.0,30.01,WSW,252,9.0,14.0,83,0.00,,,0.00,meteohub,2013-02-18 14:58:00,
2013-02-18 07:03:00,47.8,43.0,30.00,WSW,258,8.0,16.0,83,0.00,,,0.00,meteohub,2013-02-18 15:03:00,
2013-02-18 07:08:00,47.8,43.0,30.01,WSW,238,9.0,16.0,83,0.00,,,0.00,meteohub,2013-02-18 15:08:00,
2013-02-18 07:13:00,48.0,43.3,30.01,West,270,7.0,16.0,84,0.00,,,0.00,meteohub,2013-02-18 15:13:00,
2013-02-18 07:18:00,48.0,43.3,30.01,West,260,1.0,13.0,84,0.00,,,0.00,meteohub,2013-02-18 15:18:00,
2013-02-18 07:23:00,48.0,43.3,30.01,WSW,253,3.0,13.0,84,0.00,,,0.00,meteohub,2013-02-18 15:23:00,
2013-02-18 07:28:00,48.2,43.3,30.01,West,262,1.0,13.0,83,0.00,,,0.00,meteohub,2013-02-18 15:28:00,
2013-02-18 07:33:00,48.4,43.5,30.02,West,260,1.0,10.0,83,0.00,,,0.00,meteohub,2013-02-18 15:33:00,
2013-02-18 07:38:00,48.4,43.5,30.02,WSW,258,6.0,9.0,83,0.00,,,0.00,meteohub,2013-02-18 15:38:00,
2013-02-18 07:44:00,48.6,43.3,30.02,WSW,258,9.0,9.0,82,0.00,,,0.00,meteohub,2013-02-18 15:44:00,
2013-02-18 07:49:00,48.6,43.3,30.02,SW,233,8.0,10.0,82,0.00,,,0.00,meteohub,2013-02-18 15:49:00,
2013-02-18 07:54:00,48.7,43.2,30.02,WSW,257,9.0,10.0,81,0.00,,,0.00,meteohub,2013-02-18 15:54:00,
2013-02-18 07:59:00,48.6,43.0,30.02,WNW,301,5.0,11.0,81,0.00,,,0.00,meteohub,2013-02-18 15:59:00,
2013-02-18 08:05:00,48.4,42.8,30.02,WSW,256,2.0,11.0,81,0.00,,,0.00,meteohub,2013-02-18 16:05:00,
2013-02-18 08:10:00,48.4,43.2,30.03,West,261,2.0,10.0,82,0.00,,,0.00,meteohub,2013-02-18 16:10:00,
2013-02-18 08:15:00,48.4,43.2,30.03,WSW,258,8.0,11.0,82,0.00,,,0.00,meteohub,2013-02-18 16:15:00,
2013-02-18 08:20:00,48.4,43.2,30.03,WSW,257,8.0,11.0,82,0.00,,,0.00,meteohub,2013-02-18 16:20:00,
2013-02-18 08:25:00,48.6,43.3,30.03,West,277,2.0,11.0,82,0.00,,,0.00,meteohub,2013-02-18 16:25:00,
2013-02-18 08:30:00,48.6,43.0,30.03,WNW,288,0.0,11.0,81,0.00,,,0.00,meteohub,2013-02-18 16:30:00,
2013-02-18 08:36:00,48.6,43.0,30.03,WSW,254,4.0,12.0,81,0.00,,,0.00,meteohub,2013-02-18 16:36:00,
2013-02-18 08:41:00,48.6,42.6,30.04,SW,233,5.0,12.0,80,0.00,,,0.00,meteohub,2013-02-18 16:41:00,
2013-02-18 08:46:00,48.6,42.6,30.04,WNW,287,1.0,12.0,80,0.00,,,0.00,meteohub,2013-02-18 16:46:00,
2013-02-18 08:51:00,48.7,42.8,30.04,SSW,205,7.0,11.0,80,0.00,,,0.00,meteohub,2013-02-18 16:51:00,
2013-02-18 08:56:00,48.7,42.8,30.04,SW,227,8.0,13.0,80,0.00,,,0.00,meteohub,2013-02-18 16:56:00,
2013-02-18 09:01:00,48.7,42.4,30.04,SSW,202,2.0,13.0,79,0.00,,,0.00,meteohub,2013-02-18 17:01:00,
2013-02-18 09:06:00,48.7,42.4,30.04,WSW,253,4.0,13.0,79,0.00,,,0.00,meteohub,2013-02-18 17:06:00,
2013-02-18 09:11:00,48.9,43.0,30.04,West,279,8.0,13.0,80,0.00,,,0.00,meteohub,2013-02-18 17:11:00,
2013-02-18 09:17:00,48.9,42.6,30.04,WSW,252,4.0,13.0,79,0.00,,,0.00,meteohub,2013-02-18 17:17:00,
2013-02-18 09:22:00,49.1,42.8,30.04,WSW,243,10.0,13.0,79,0.00,,,0.00,meteohub,2013-02-18 17:22:00,
2013-02-18 09:27:00,48.9,42.6,30.04,WSW,238,5.0,13.0,79,0.00,,,0.00,meteohub,2013-02-18 17:27:00,
2013-02-18 09:32:00,48.9,42.6,30.04,SW,233,10.0,13.0,79,0.00,,,0.00,meteohub,2013-02-18 17:32:00,
2013-02-18 09:37:00,48.9,42.4,30.04,WNW,300,4.0,13.0,78,0.00,,,0.00,meteohub,2013-02-18 17:37:00,
2013-02-18 09:42:00,49.1,42.8,30.03,SW,229,7.0,12.0,79,0.00,,,0.00,meteohub,2013-02-18 17:42:00,
2013-02-18 09:47:00,49.3,42.8,30.04,WNW,299,11.0,13.0,78,0.00,,,0.00,meteohub,2013-02-18 17:47:00,
2013-02-18 09:52:00,49.3,42.8,30.04,West,274,8.0,14.0,78,0.00,,,0.00,meteohub,2013-02-18 17:52:00,
2013-02-18 09:57:00,49.5,42.8,30.04,WSW,244,10.0,15.0,78,0.00,,,0.00,meteohub,2013-02-18 17:57:00,
2013-02-18 10:03:00,49.5,42.3,30.04,WSW,250,7.0,15.0,76,0.00,,,0.00,meteohub,2013-02-18 18:03:00,
2013-02-18 10:08:00,49.6,42.4,30.04,West,268,11.0,14.0,76,0.00,,,0.00,meteohub,2013-02-18 18:08:00,
2013-02-18 10:13:00,49.5,43.2,30.04,WSW,246,8.0,15.0,79,0.00,,,0.00,meteohub,2013-02-18 18:13:00,
2013-02-18 10:18:00,49.6,43.7,30.04,WSW,242,4.0,15.0,80,0.00,,,0.00,meteohub,2013-02-18 18:18:00,
2013-02-18 10:23:00,49.6,44.1,30.04,SSW,200,7.0,15.0,81,0.00,,,0.00,meteohub,2013-02-18 18:23:00,
2013-02-18 10:28:00,49.5,43.9,30.04,WSW,242,10.0,15.0,81,0.00,,,0.00,meteohub,2013-02-18 18:28:00,
2013-02-18 10:34:00,49.3,43.7,30.04,NW,304,5.0,15.0,81,0.00,,,0.00,meteohub,2013-02-18 18:34:00,
2013-02-18 10:39:00,49.3,43.7,30.04,WSW,252,9.0,15.0,81,0.00,,,0.00,meteohub,2013-02-18 18:39:00,
2013-02-18 10:44:00,49.5,44.2,30.04,WSW,254,0.0,14.0,82,0.00,,,0.00,meteohub,2013-02-18 18:44:00,
2013-02-18 10:49:00,49.6,44.4,30.04,WNW,295,3.0,14.0,82,0.00,,,0.00,meteohub,2013-02-18 18:49:00,
2013-02-18 10:54:00,49.6,44.4,30.04,WNW,297,1.0,13.0,82,0.00,,,0.00,meteohub,2013-02-18 18:54:00,
2013-02-18 10:59:00,49.8,44.6,30.04,WSW,254,1.0,13.0,82,0.00,,,0.00,meteohub,2013-02-18 18:59:00,
2013-02-18 11:04:00,50.2,45.0,30.04,WNW,294,4.0,13.0,82,0.00,,,0.00,meteohub,2013-02-18 19:04:00,
2013-02-18 11:09:00,49.8,44.2,30.04,NNW,348,4.0,11.0,81,0.00,,,0.00,meteohub,2013-02-18 19:09:00,
2013-02-18 11:15:00,49.8,44.6,30.04,North,0,4.0,11.0,82,0.00,,,0.00,meteohub,2013-02-18 19:15:00,
2013-02-18 11:20:00,49.6,44.1,30.04,WNW,287,3.0,11.0,81,0.00,,,0.00,meteohub,2013-02-18 19:20:00,
2013-02-18 11:25:00,49.6,43.7,30.04,West,264,7.0,11.0,80,0.00,,,0.00,meteohub,2013-02-18 19:25:00,
2013-02-18 11:30:00,49.8,43.9,30.04,WNW,294,1.0,11.0,80,0.00,,,0.00,meteohub,2013-02-18 19:30:00,
2013-02-18 11:36:00,50.2,44.2,30.04,West,263,7.0,13.0,80,0.00,,,0.00,meteohub,2013-02-18 19:36:00,
2013-02-18 11:41:00,50.4,44.1,30.04,WSW,254,4.0,13.0,79,0.00,,,0.00,meteohub,2013-02-18 19:41:00,
2013-02-18 11:46:00,50.4,44.1,30.04,NW,324,6.0,15.0,79,0.00,,,0.00,meteohub,2013-02-18 19:46:00,
2013-02-18 11:51:00,50.2,44.2,30.04,WNW,292,3.0,15.0,80,0.00,,,0.00,meteohub,2013-02-18 19:51:00,
2013-02-18 11:56:00,50.2,44.2,30.04,West,262,9.0,15.0,80,0.00,,,0.00,meteohub,2013-02-18 19:56:00,
2013-02-18 12:01:00,50.2,43.9,30.03,NW,318,8.0,14.0,79,0.00,,,0.00,meteohub,2013-02-18 20:01:00,
2013-02-18 12:06:00,50.2,44.2,30.03,WNW,293,1.0,13.0,80,0.00,,,0.00,meteohub,2013-02-18 20:06:00,
2013-02-18 12:12:00,50.4,44.4,30.03,West,260,3.0,13.0,80,0.00,,,0.00,meteohub,2013-02-18 20:12:00,
2013-02-18 12:17:00,50.4,44.4,30.02,West,259,5.0,11.0,80,0.00,,,0.00,meteohub,2013-02-18 20:17:00,
2013-02-18 12:22:00,50.5,44.2,30.02,WNW,283,3.0,11.0,79,0.00,,,0.00,meteohub,2013-02-18 20:22:00,
2013-02-18 12:27:00,50.9,43.9,30.02,West,268,8.0,11.0,77,0.00,,,0.00,meteohub,2013-02-18 20:27:00,
2013-02-18 12:32:00,51.1,44.1,30.02,West,280,7.0,11.0,77,0.00,,,0.00,meteohub,2013-02-18 20:32:00,
2013-02-18 12:37:00,50.5,43.5,30.01,NW,312,4.0,14.0,77,0.00,,,0.00,meteohub,2013-02-18 20:37:00,
2013-02-18 12:42:00,50.5,43.5,30.01,WNW,287,2.0,14.0,77,0.00,,,0.00,meteohub,2013-02-18 20:42:00,
2013-02-18 12:47:00,51.1,44.4,30.01,WNW,295,11.0,14.0,78,0.00,,,0.00,meteohub,2013-02-18 20:47:00,
2013-02-18 12:52:00,51.4,44.1,30.01,NW,321,3.0,13.0,76,0.00,,,0.00,meteohub,2013-02-18 20:52:00,
2013-02-18 12:57:00,52.0,43.9,30.00,West,277,7.0,13.0,74,0.00,,,0.00,meteohub,2013-02-18 20:57:00,
2013-02-18 13:03:00,51.8,43.7,30.00,WSW,256,3.0,13.0,74,0.00,,,0.00,meteohub,2013-02-18 21:03:00,
2013-02-18 13:08:00,51.4,43.2,30.00,WNW,285,3.0,13.0,73,0.00,,,0.00,meteohub,2013-02-18 21:08:00,
2013-02-18 13:13:00,51.6,43.3,29.99,West,280,0.0,13.0,73,0.00,,,0.00,meteohub,2013-02-18 21:13:00,
2013-02-18 13:19:00,51.6,43.3,29.99,WSW,247,5.0,13.0,73,0.00,,,0.00,meteohub,2013-02-18 21:19:00,
2013-02-18 13:24:00,52.0,43.2,29.99,WNW,293,4.0,14.0,72,0.00,,,0.00,meteohub,2013-02-18 21:24:00,
2013-02-18 13:29:00,51.6,43.3,29.99,NW,314,5.0,14.0,73,0.00,,,0.00,meteohub,2013-02-18 21:29:00,
2013-02-18 13:34:00,52.0,43.2,29.99,West,260,6.0,14.0,72,0.00,,,0.00,meteohub,2013-02-18 21:34:00,
2013-02-18 13:40:00,52.2,43.0,29.99,WSW,241,4.0,13.0,71,0.00,,,0.00,meteohub,2013-02-18 21:40:00,
2013-02-18 13:45:00,52.2,43.0,29.99,WSW,252,8.0,14.0,71,0.00,,,0.00,meteohub,2013-02-18 21:45:00,
2013-02-18 13:50:00,52.3,42.8,29.99,WSW,245,3.0,16.0,70,0.00,,,0.00,meteohub,2013-02-18 21:50:00,
2013-02-18 13:55:00,51.6,42.4,29.99,West,261,1.0,16.0,71,0.00,,,0.00,meteohub,2013-02-18 21:55:00,
2013-02-18 14:00:00,51.6,43.0,29.99,WNW,302,6.0,16.0,72,0.00,,,0.00,meteohub,2013-02-18 22:00:00,
2013-02-18 14:05:00,52.2,43.3,29.99,NW,316,5.0,13.0,72,0.00,,,0.00,meteohub,2013-02-18 22:05:00,
2013-02-18 14:10:00,52.0,42.8,29.99,SW,226,9.0,16.0,71,0.00,,,0.00,meteohub,2013-02-18 22:10:00,
2013-02-18 14:15:00,51.6,43.0,29.98,NW,315,5.0,16.0,72,0.00,,,0.00,meteohub,2013-02-18 22:15:00,
2013-02-18 14:20:00,52.0,42.8,29.99,West,278,8.0,16.0,71,0.00,,,0.00,meteohub,2013-02-18 22:20:00,
2013-02-18 14:26:00,52.7,43.2,29.99,NNW,332,5.0,14.0,70,0.00,,,0.00,meteohub,2013-02-18 22:26:00,
2013-02-18 14:31:00,52.9,42.3,29.99,West,281,9.0,14.0,67,0.00,,,0.00,meteohub,2013-02-18 22:31:00,
2013-02-18 14:36:00,52.3,42.4,29.99,SSW,213,8.0,16.0,69,0.00,,,0.00,meteohub,2013-02-18 22:36:00,
2013-02-18 14:41:00,51.8,42.6,29.99,WSW,256,3.0,17.0,71,0.00,,,0.00,meteohub,2013-02-18 22:41:00,
2013-02-18 14:46:00,52.2,43.0,29.99,WNW,285,3.0,17.0,71,0.00,,,0.00,meteohub,2013-02-18 22:46:00,
2013-02-18 14:52:00,52.2,43.3,29.99,WSW,241,5.0,17.0,72,0.00,,,0.00,meteohub,2013-02-18 22:52:00,
2013-02-18 14:57:00,52.3,42.8,29.99,WSW,256,6.0,16.0,70,0.00,,,0.00,meteohub,2013-02-18 22:57:00,
2013-02-18 15:02:00,51.6,42.1,29.99,West,264,11.0,16.0,70,0.00,,,0.00,meteohub,2013-02-18 23:02:00,
2013-02-18 15:07:00,51.6,42.4,29.99,NW,304,2.0,16.0,71,0.00,,,0.00,meteohub,2013-02-18 23:07:00,
2013-02-18 15:12:00,51.6,42.4,29.98,WNW,284,11.0,16.0,71,0.00,,,0.00,meteohub,2013-02-18 23:12:00,
2013-02-18 15:17:00,51.4,42.4,29.98,WNW,301,3.0,16.0,71,0.00,,,0.00,meteohub,2013-02-18 23:17:00,
2013-02-18 15:23:00,51.1,42.1,29.98,WNW,282,3.0,15.0,71,0.00,,,0.00,meteohub,2013-02-18 23:23:00,
2013-02-18 15:28:00,51.4,42.8,29.98,WNW,287,7.0,15.0,72,0.00,,,0.00,meteohub,2013-02-18 23:28:00,
2013-02-18 15:33:00,51.6,43.0,29.98,West,281,3.0,15.0,72,0.00,,,0.00,meteohub,2013-02-18 23:33:00,
2013-02-18 15:38:00,52.0,43.2,29.98,West,272,3.0,15.0,72,0.00,,,0.00,meteohub,2013-02-18 23:38:00,
2013-02-18 15:43:00,51.6,42.1,29.98,WNW,295,9.0,15.0,70,0.00,,,0.00,meteohub,2013-02-18 23:43:00,
2013-02-18 15:48:00,51.3,42.6,29.98,WSW,241,14.0,14.0,72,0.00,,,0.00,meteohub,2013-02-18 23:48:00,
2013-02-18 15:53:00,50.7,42.1,29.98,NW,310,4.0,15.0,72,0.00,,,0.00,meteohub,2013-02-18 23:53:00,
2013-02-18 15:58:00,50.7,42.4,29.98,WSW,254,7.0,15.0,73,0.00,,,0.00,meteohub,2013-02-18 23:58:00,
2013-02-18 16:03:00,50.7,42.1,29.98,WSW,238,8.0,15.0,72,0.00,,,0.00,meteohub,2013-02-19 00:03:00,
2013-02-18 16:08:00,50.4,42.4,29.98,WSW,248,3.0,17.0,74,0.00,,,0.00,meteohub,2013-02-19 00:08:00,
2013-02-18 16:13:00,50.4,42.4,29.98,West,275,9.0,17.0,74,0.00,,,0.00,meteohub,2013-02-19 00:13:00,
2013-02-18 16:18:00,50.2,42.6,29.99,WSW,241,9.0,17.0,75,0.00,,,0.00,meteohub,2013-02-19 00:18:00,
2013-02-18 16:24:00,50.2,42.6,29.98,WSW,239,9.0,16.0,75,0.00,,,0.00,meteohub,2013-02-19 00:24:00,
2013-02-18 16:29:00,50.2,42.6,29.98,WSW,245,12.0,15.0,75,0.00,,,0.00,meteohub,2013-02-19 00:29:00,
2013-02-18 16:34:00,50.2,42.6,29.98,West,279,2.0,15.0,75,0.00,,,0.00,meteohub,2013-02-19 00:34:00,
2013-02-18 16:39:00,50.2,42.6,29.98,WNW,291,1.0,16.0,75,0.00,,,0.00,meteohub,2013-02-19 00:39:00,
2013-02-18 16:44:00,50.2,42.6,29.98,WSW,245,8.0,16.0,75,0.00,,,0.00,meteohub,2013-02-19 00:44:00,
2013-02-18 16:49:00,49.8,42.6,29.98,WSW,252,5.0,16.0,76,0.00,,,0.00,meteohub,2013-02-19 00:49:00,
2013-02-18 16:54:00,50.0,43.2,29.98,SW,232,6.0,16.0,77,0.00,,,0.00,meteohub,2013-02-19 00:54:00,
2013-02-18 16:59:00,49.8,42.6,29.98,West,272,8.0,18.0,76,0.00,,,0.00,meteohub,2013-02-19 00:59:00,
2013-02-18 17:04:00,49.8,43.0,29.98,WSW,237,2.0,18.0,77,0.00,,,0.00,meteohub,2013-02-19 01:04:00,
2013-02-18 17:10:00,49.6,42.1,29.98,NW,324,8.0,18.0,75,0.00,,,0.00,meteohub,2013-02-19 01:10:00,
2013-02-18 17:15:00,49.6,41.7,29.97,WSW,249,2.0,15.0,74,0.00,,,0.00,meteohub,2013-02-19 01:15:00,
2013-02-18 17:20:00,49.6,42.1,29.98,South,186,1.0,13.0,75,0.00,,,0.00,meteohub,2013-02-19 01:20:00,
2013-02-18 17:25:00,49.6,41.7,29.97,NNW,334,4.0,18.0,74,0.00,,,0.00,meteohub,2013-02-19 01:25:00,
2013-02-18 17:30:00,49.8,41.9,29.98,WNW,295,4.0,18.0,74,0.00,,,0.00,meteohub,2013-02-19 01:30:00,
2013-02-18 17:35:00,49.8,41.9,29.98,WSW,240,5.0,18.0,74,0.00,,,0.00,meteohub,2013-02-19 01:35:00,
2013-02-18 17:40:00,49.6,41.7,29.98,WNW,286,5.0,14.0,74,0.00,,,0.00,meteohub,2013-02-19 01:40:00,
2013-02-18 17:46:00,49.5,41.9,29.97,NNE,12,2.0,14.0,75,0.00,,,0.00,meteohub,2013-02-19 01:46:00,
2013-02-18 17:51:00,49.5,42.3,29.97,West,262,10.0,14.0,76,0.00,,,0.00,meteohub,2013-02-19 01:51:00,
2013-02-18 17:56:00,49.5,42.3,29.97,WNW,300,4.0,14.0,76,0.00,,,0.00,meteohub,2013-02-19 01:56:00,
2013-02-18 18:01:00,49.5,42.3,29.97,WSW,257,3.0,15.0,76,0.00,,,0.00,meteohub,2013-02-19 02:01:00,
2013-02-18 18:07:00,49.3,42.1,29.97,North,358,2.0,15.0,76,0.00,,,0.00,meteohub,2013-02-19 02:07:00,
2013-02-18 18:12:00,49.3,42.1,29.97,West,260,1.0,13.0,76,0.00,,,0.00,meteohub,2013-02-19 02:12:00,
2013-02-18 18:17:00,49.3,42.4,29.97,WSW,245,0.0,12.0,77,0.00,,,0.00,meteohub,2013-02-19 02:17:00,
2013-02-18 18:22:00,49.3,42.8,29.97,WNW,288,3.0,13.0,78,0.00,,,0.00,meteohub,2013-02-19 02:22:00,
2013-02-18 18:27:00,49.3,43.0,29.97,WSW,256,13.0,16.0,79,0.00,,,0.00,meteohub,2013-02-19 02:27:00,
2013-02-18 18:33:00,49.3,43.0,29.97,WNW,286,3.0,16.0,79,0.00,,,0.00,meteohub,2013-02-19 02:33:00,
2013-02-18 18:38:00,49.3,42.8,29.97,North,3,2.0,17.0,78,0.00,,,0.00,meteohub,2013-02-19 02:38:00,
2013-02-18 18:43:00,49.3,42.8,29.97,NW,312,1.0,17.0,78,0.00,,,0.00,meteohub,2013-02-19 02:43:00,
2013-02-18 18:48:00,49.1,42.3,29.97,West,277,3.0,17.0,77,0.00,,,0.00,meteohub,2013-02-19 02:48:00,
2013-02-18 18:54:00,49.1,42.6,29.97,SW,229,2.0,15.0,78,0.00,,,0.00,meteohub,2013-02-19 02:54:00,
2013-02-18 18:59:00,49.1,42.6,29.97,SW,231,4.0,15.0,78,0.00,,,0.00,meteohub,2013-02-19 02:59:00,
2013-02-18 19:04:00,48.9,42.4,29.97,WSW,250,7.0,15.0,78,0.00,,,0.00,meteohub,2013-02-19 03:04:00,
2013-02-18 19:09:00,49.1,42.6,29.97,WSW,258,5.0,16.0,78,0.00,,,0.00,meteohub,2013-02-19 03:09:00,
2013-02-18 19:15:00,49.1,42.6,29.97,SW,227,12.0,16.0,78,0.00,,,0.00,meteohub,2013-02-19 03:15:00,
2013-02-18 19:20:00,49.1,42.8,29.97,WSW,255,13.0,17.0,79,0.00,,,0.00,meteohub,2013-02-19 03:20:00,
2013-02-18 19:25:00,49.1,42.6,29.98,West,279,7.0,17.0,78,0.00,,,0.00,meteohub,2013-02-19 03:25:00,
2013-02-18 19:30:00,49.1,42.6,29.97,WNW,283,3.0,17.0,78,0.00,,,0.00,meteohub,2013-02-19 03:30:00,
2013-02-18 19:36:00,49.1,42.8,29.98,WNW,297,2.0,17.0,79,0.00,,,0.00,meteohub,2013-02-19 03:36:00,
2013-02-18 19:41:00,48.9,42.4,29.97,West,269,7.0,13.0,78,0.00,,,0.00,meteohub,2013-02-19 03:41:00,
2013-02-18 19:46:00,48.9,42.4,29.97,WSW,254,7.0,12.0,78,0.00,,,0.00,meteohub,2013-02-19 03:46:00,
2013-02-18 19:51:00,48.9,42.4,29.97,WNW,298,2.0,14.0,78,0.00,,,0.00,meteohub,2013-02-19 03:51:00,
2013-02-18 19:56:00,48.9,42.6,29.97,West,274,5.0,18.0,79,0.00,,,0.00,meteohub,2013-02-19 03:56:00,
2013-02-18 20:01:00,48.9,42.6,29.97,WSW,253,8.0,18.0,79,0.00,,,0.00,meteohub,2013-02-19 04:01:00,
2013-02-18 20:07:00,48.7,42.3,29.97,NW,314,1.0,18.0,78,0.00,,,0.00,meteohub,2013-02-19 04:07:00,
2013-02-18 20:12:00,48.7,41.9,29.97,WNW,294,4.0,17.0,77,0.00,,,0.00,meteohub,2013-02-19 04:12:00,
2013-02-18 20:17:00,48.7,42.3,29.98,NW,311,5.0,11.0,78,0.00,,,0.00,meteohub,2013-02-19 04:17:00,
2013-02-18 20:22:00,48.6,41.0,29.98,NW,322,3.0,9.0,75,0.00,,,0.00,meteohub,2013-02-19 04:22:00,
2013-02-18 20:27:00,48.7,41.5,29.98,WNW,303,1.0,9.0,76,0.00,,,0.00,meteohub,2013-02-19 04:27:00,
2013-02-18 20:32:00,48.7,41.5,29.98,West,277,5.0,11.0,76,0.00,,,0.00,meteohub,2013-02-19 04:32:00,
2013-02-18 20:38:00,48.7,41.5,29.98,West,274,7.0,13.0,76,0.00,,,0.00,meteohub,2013-02-19 04:38:00,
2013-02-18 20:43:00,48.7,41.5,29.98,NW,304,3.0,13.0,76,0.00,,,0.00,meteohub,2013-02-19 04:43:00,
2013-02-18 20:48:00,48.7,41.2,29.98,West,281,5.0,13.0,75,0.00,,,0.00,meteohub,2013-02-19 04:48:00,
2013-02-18 20:53:00,48.7,41.5,29.98,WSW,243,4.0,11.0,76,0.00,,,0.00,meteohub,2013-02-19 04:53:00,
2013-02-18 20:58:00,48.7,41.2,29.98,NNW,335,3.0,10.0,75,0.00,,,0.00,meteohub,2013-02-19 04:58:00,
2013-02-18 21:00:00,48.7,41.2,29.98,West,278,7.0,10.0,75,0.00,,,0.00,meteohub,2013-02-19 05:00:00,
2013-02-18 21:01:00,48.7,41.2,29.98,NW,324,2.0,13.0,75,0.00,,,0.00,meteohub,2013-02-19 05:01:00,
2013-02-18 21:07:00,48.7,41.5,29.98,West,262,11.0,13.0,76,0.00,,,0.00,meteohub,2013-02-19 05:07:00,
2013-02-18 21:12:00,48.7,41.2,29.99,WSW,245,7.0,13.0,75,0.00,,,0.00,meteohub,2013-02-19 05:12:00,
2013-02-18 21:17:00,48.7,41.2,29.99,WNW,301,2.0,11.0,75,0.00,,,0.00,meteohub,2013-02-19 05:17:00,
2013-02-18 21:22:00,48.9,41.7,29.99,WNW,303,3.0,11.0,76,0.00,,,0.00,meteohub,2013-02-19 05:22:00,
2013-02-18 21:27:00,48.7,41.2,29.99,WNW,299,11.0,11.0,75,0.00,,,0.00,meteohub,2013-02-19 05:27:00,
2013-02-18 21:32:00,48.7,41.2,29.99,WNW,302,5.0,14.0,75,0.00,,,0.00,meteohub,2013-02-19 05:32:00,
2013-02-18 21:37:00,48.7,41.2,29.99,WSW,249,4.0,14.0,75,0.00,,,0.00,meteohub,2013-02-19 05:37:00,
2013-02-18 21:42:00,48.7,41.2,29.99,WNW,293,4.0,12.0,75,0.00,,,0.00,meteohub,2013-02-19 05:42:00,
2013-02-18 21:47:00,48.7,41.2,29.99,West,262,5.0,13.0,75,0.00,,,0.00,meteohub,2013-02-19 05:47:00,
2013-02-18 21:52:00,48.7,40.8,29.99,WNW,302,11.0,13.0,74,0.00,,,0.00,meteohub,2013-02-19 05:52:00,
2013-02-18 21:57:00,48.6,39.9,29.99,West,279,7.0,13.0,72,0.00,,,0.00,meteohub,2013-02-19 05:57:00,
2013-02-18 22:03:00,48.7,40.5,29.99,NW,320,3.0,15.0,73,0.00,,,0.00,meteohub,2013-02-19 06:03:00,
2013-02-18 22:08:00,48.7,40.5,29.98,NW,319,4.0,15.0,73,0.00,,,0.00,meteohub,2013-02-19 06:08:00,
2013-02-18 22:13:00,48.6,39.9,29.98,West,266,11.0,15.0,72,0.00,,,0.00,meteohub,2013-02-19 06:13:00,
2013-02-18 22:18:00,48.7,39.7,29.98,West,274,3.0,13.0,71,0.00,,,0.00,meteohub,2013-02-19 06:18:00,
2013-02-18 22:23:00,48.7,40.1,29.98,WNW,302,7.0,13.0,72,0.00,,,0.00,meteohub,2013-02-19 06:23:00,
2013-02-18 22:28:00,48.7,40.5,29.98,NW,308,5.0,13.0,73,0.00,,,0.00,meteohub,2013-02-19 06:28:00,
2013-02-18 22:33:00,48.7,40.8,29.98,WNW,298,2.0,10.0,74,0.00,,,0.00,meteohub,2013-02-19 06:33:00,
2013-02-18 22:38:00,48.6,40.3,29.98,SW,216,1.0,10.0,73,0.00,,,0.00,meteohub,2013-02-19 06:38:00,
2013-02-18 22:43:00,48.6,40.6,29.98,WNW,299,5.0,15.0,74,0.00,,,0.00,meteohub,2013-02-19 06:43:00,
2013-02-18 22:48:00,48.6,40.3,29.98,West,268,7.0,15.0,73,0.00,,,0.00,meteohub,2013-02-19 06:48:00,
2013-02-18 22:53:00,48.7,40.1,29.98,WSW,258,9.0,13.0,72,0.00,,,0.00,meteohub,2013-02-19 06:53:00,
2013-02-18 22:58:00,48.6,39.9,29.98,WNW,302,4.0,13.0,72,0.00,,,0.00,meteohub,2013-02-19 06:58:00,
2013-02-18 23:03:00,48.6,39.6,29.97,WNW,300,2.0,13.0,71,0.00,,,0.00,meteohub,2013-02-19 07:03:00,
2013-02-18 23:08:00,48.6,39.2,29.97,West,280,9.0,13.0,70,0.00,,,0.00,meteohub,2013-02-19 07:08:00,
2013-02-18 23:14:00,48.7,39.4,29.98,West,275,1.0,13.0,70,0.00,,,0.00,meteohub,2013-02-19 07:14:00,
2013-02-18 23:19:00,48.6,39.2,29.98,NW,320,2.0,13.0,70,0.00,,,0.00,meteohub,2013-02-19 07:19:00,
2013-02-18 23:24:00,48.6,39.6,29.98,SW,217,6.0,14.0,71,0.00,,,0.00,meteohub,2013-02-19 07:24:00,
2013-02-18 23:29:00,48.6,39.9,29.97,NW,306,4.0,14.0,72,0.00,,,0.00,meteohub,2013-02-19 07:29:00,
2013-02-18 23:34:00,48.4,39.0,29.97,WSW,249,4.0,14.0,70,0.00,,,0.00,meteohub,2013-02-19 07:34:00,
2013-02-18 23:39:00,48.6,39.2,29.98,West,279,0.0,12.0,70,0.00,,,0.00,meteohub,2013-02-19 07:39:00,
2013-02-18 23:44:00,48.6,39.2,29.98,WSW,237,4.0,12.0,70,0.00,,,0.00,meteohub,2013-02-19 07:44:00,
2013-02-18 23:49:00,48.6,38.8,29.97,WSW,249,0.0,9.0,69,0.00,,,0.00,meteohub,2013-02-19 07:49:00,
2013-02-18 23:54:00,48.7,40.1,29.97,NW,306,4.0,15.0,72,0.00,,,0.00,meteohub,2013-02-19 07:54:00,
2013-02-18 23:59:00,48.7,40.1,29.97,WNW,287,2.0,15.0,72,0.00,,,0.00,meteohub,2013-02-19 07:59:00,